Weather History for KASH - March, 2012

Change the Weather History Date:

Tuesday, March 13, 2012

  Actual Average Record
Temperature  
Mean Temperature 61 °F -  
Max Temperature 72 °F 43 °F 72 °F (1990)
Min Temperature 50 °F 23 °F 6 °F (1998)
Degree Days  
Heating Degree Days 4    
Growing Degree Days 11 (Base 50)    
Moisture  
Dew Point 46 °F    
Average Humidity 63    
Maximum Humidity 89    
Minimum Humidity 45    
Precipitation  
Precipitation 0.01 in - - ()
Sea Level Pressure  
Sea Level Pressure 29.98 in    
Wind  
Wind Speed 3 mph (WSW)    
Max Wind Speed 13 mph    
Max Gust Speed -    
Visibility 10 miles    
Events Rain , Thunderstorm    
Averages and records for this station are not official NWS values.
T = Trace of Precipitation, MM = Missing Value Source: NWS Daily Summary

Daily Weather History Graph

Daily Weather History Graph

Search for Another Location

Airport or City:

Trip Planner

Search our weather history database for the weather conditions in past years. The results will help you decide how hot, cold, wet, or windy it might be!

Date:

Astronomy

Mar. 13, 2012 Rise Set
Actual Time 7:00 AM EDT 6:50 PM EDT
Civil Twilight 6:32 AM EDT 7:18 PM EDT
Nautical Twilight 5:59 AM EDT 7:51 PM EDT
Astronomical Twilight 5:26 AM EDT 8:25 PM EDT
Moon 12:28 AM EDT (3/13) 10:01 AM EDT (3/13)
Length of Visible Light 12h 46m
Length of Day
11h 49m
Waning Gibbous, 66% of the Moon is Illuminated
Mar 13
Waning Gibbous
Mar 14
Last Quarter
Mar 22
New
Mar 30
First Quarter
Apr 6
Full

Hourly Weather History & Observations

Time (EDT) Temp. Dew Point Humidity Pressure Visibility Wind Dir Wind Speed Gust Speed Precip Events Conditions
12:51 AM 50.9 °F 36.9 °F 59% 30.09 in 10.0 mi Calm Calm - N/A   Mostly Cloudy
1:51 AM 50.0 °F 39.9 °F 68% 30.09 in 10.0 mi Calm Calm - N/A   Clear
2:51 AM 50.9 °F 36.9 °F 59% 30.07 in 10.0 mi Variable 3.5 mph - 0.00 in Rain Light Rain
3:51 AM 55.9 °F 34.9 °F 45% 30.06 in 10.0 mi Variable 4.6 mph - 0.00 in   Scattered Clouds
4:51 AM 52.9 °F 36.9 °F 55% 30.04 in 10.0 mi Calm Calm - N/A   Overcast
5:51 AM 54.9 °F 36.0 °F 49% 30.04 in 10.0 mi Calm Calm - N/A   Overcast
6:51 AM 52.9 °F 39.9 °F 61% 30.03 in 10.0 mi ESE 3.5 mph - 0.00 in   Mostly Cloudy
7:51 AM 52.0 °F 41.0 °F 66% 30.04 in 10.0 mi Variable 4.6 mph - 0.00 in   Mostly Cloudy
9:51 AM 52.0 °F 48.9 °F 89% 30.01 in 10.0 mi Variable 4.6 mph - 0.01 in   Scattered Clouds
11:51 AM 61.9 °F 50.9 °F 67% 29.97 in 10.0 mi Variable 4.6 mph - N/A   Clear
12:51 PM 68.0 °F 50.9 °F 54% 29.93 in 10.0 mi SSW 10.4 mph - N/A   Clear
1:51 PM 70.9 °F 50.9 °F 49% 29.90 in 10.0 mi South 8.1 mph - N/A   Partly Cloudy
3:51 PM 72.0 °F 50.0 °F 46% 29.86 in 10.0 mi West 10.4 mph - N/A   Partly Cloudy
4:51 PM 70.9 °F 50.0 °F 48% 29.86 in 10.0 mi WSW 8.1 mph - N/A   Mostly Cloudy
6:51 PM 68.0 °F 50.9 °F 54% 29.89 in 10.0 mi WNW 3.5 mph - N/A   Mostly Cloudy
7:51 PM 63.0 °F 50.9 °F 65% 29.92 in 10.0 mi WNW 3.5 mph - N/A   Clear
8:51 PM 59.9 °F 50.9 °F 72% 29.94 in 10.0 mi Calm Calm - N/A   Mostly Cloudy
9:51 PM 56.8 °F 50.9 °F 80% 29.95 in 10.0 mi Calm Calm - N/A   Mostly Cloudy
10:51 PM 57.9 °F 50.9 °F 77% 29.95 in 10.0 mi Variable 3.5 mph - N/A   Mostly Cloudy
11:26 PM 57.2 °F 51.8 °F 82% 29.94 in 10.0 mi Calm Calm - N/A Thunderstorm Overcast
11:51 PM 59.0 °F 50.9 °F 74% 29.96 in 10.0 mi NNW 12.7 mph - N/A Thunderstorm Thunderstorm